contact:dominique.lefevre@mio.osupytheas.fr, maurice.libes@osupytheas.fr, didier.mallarino@osupytheas.fr
Project:EMSO http://www.emso-fr.org/EMSO-France
Depth: 2436.0 m
Title:EMSO Ligure Ouest : Data MII capteur AQUADOPP
Date,Latitude,Longitude,X_East,Y_North,Z_Up,Amplitude_X,Amplitude_Y,Amplitude_Z,Batterie,SoundSpeed,Heading,Pitch,Roll,Pressure,TIS,Speed,Direction
, degrees North, degrees East, m.s-1, m.s-1,m.s-1, 1, 1, 1, Volt, m.s-1, degree, degree, degree, dbar, degree_C, m.s-1, degree
2020-12-23T00:04:03,42.805,6.029,0.032,-0.005,0.032,101.0,114.0,99.0,13.4,1505.3,326.0,-0.7,1.8,2470.42,13.31,0.032,98.9
2020-12-23T00:07:03,42.805,6.029,-0.021,0.027,0.012,101.0,115.0,99.0,13.3,1505.3,324.3,-0.7,1.8,2470.435,13.31,0.034,322.1
2020-12-23T00:10:03,42.805,6.029,-0.03,0.012,0.002,101.0,116.0,99.0,13.4,1505.3,328.4,-0.7,1.8,2470.493,13.32,0.032,291.8
2020-12-23T00:13:03,42.805,6.029,-0.021,0.003,0.003,101.0,117.0,99.0,13.4,1505.3,323.5,-0.7,1.8,2470.442,13.32,0.021,278.1
2020-12-23T00:16:03,42.805,6.029,0.012,0.001,0.063,99.0,112.0,100.0,13.4,1505.3,323.1,-0.7,1.8,2470.445,13.32,0.012,85.2
2020-12-23T00:19:03,42.805,6.029,-0.006,0.0,0.018,101.0,118.0,99.0,13.3,1505.3,326.4,-0.7,1.8,2470.45,13.32,0.006,270.0
2020-12-23T00:22:03,42.805,6.029,0.007,0.016,0.028,100.0,120.0,98.0,13.4,1505.3,326.1,-0.7,1.8,2470.485,13.32,0.017,23.6
2020-12-23T00:25:03,42.805,6.029,0.018,0.019,0.058,100.0,117.0,99.0,13.3,1505.3,326.4,-0.7,1.8,2470.467,13.32,0.026,43.5
2020-12-23T00:28:03,42.805,6.029,-0.003,-0.001,0.012,101.0,117.0,99.0,13.4,1505.3,325.9,-0.7,1.8,2470.458,13.32,0.003,251.6
2020-12-23T00:31:03,42.805,6.029,-0.027,-0.006,-0.009,101.0,118.0,99.0,13.4,1505.3,326.1,-0.7,1.8,2470.436,13.32,0.027,257.5
2020-12-23T00:34:03,42.805,6.029,-0.023,0.019,-0.001,101.0,117.0,99.0,13.4,1505.3,322.8,-0.7,1.8,2470.44,13.32,0.029,309.6
2020-12-23T00:37:03,42.805,6.029,0.009,-0.012,0.005,101.0,120.0,98.0,13.3,1505.3,327.4,-0.7,1.8,2470.397,13.32,0.015,143.1
2020-12-23T00:40:03,42.805,6.029,-0.026,0.0,-0.014,101.0,121.0,98.0,13.4,1505.3,324.6,-0.7,1.8,2470.421,13.32,0.026,270.0
2020-12-23T00:43:03,42.805,6.029,-0.029,0.012,0.033,101.0,122.0,99.0,13.4,1505.3,325.3,-0.7,1.8,2470.434,13.32,0.031,292.5
2020-12-23T00:46:03,42.805,6.029,0.0,-0.006,0.015,101.0,118.0,98.0,13.3,1505.3,324.2,-0.7,1.8,2470.415,13.32,0.006,180.0
2020-12-23T00:49:03,42.805,6.029,-0.017,-0.006,0.036,101.0,115.0,99.0,13.4,1505.3,327.0,-0.7,1.8,2470.376,13.32,0.018,250.6
2020-12-23T00:52:03,42.805,6.029,-0.018,0.012,0.012,101.0,115.0,100.0,13.4,1505.3,327.7,-0.7,1.8,2470.403,13.32,0.021,303.7
2020-12-23T00:55:03,42.805,6.029,-0.03,0.007,0.004,101.0,121.0,99.0,13.3,1505.3,326.6,-0.7,1.8,2470.406,13.32,0.03,283.1
2020-12-23T00:58:03,42.805,6.029,-0.023,0.001,-0.013,100.0,119.0,99.0,13.4,1505.3,323.5,-0.7,1.8,2470.449,13.33,0.023,272.5
2020-12-23T01:04:03,42.805,6.029,-0.022,0.004,0.015,102.0,118.0,100.0,13.4,1505.3,324.6,-0.7,1.8,2470.488,13.31,0.022,280.3
2020-12-23T01:07:03,42.805,6.029,0.0,0.027,-0.006,100.0,119.0,99.0,13.4,1505.3,325.8,-0.7,1.8,2470.463,13.31,0.026,0.0
2020-12-23T01:10:03,42.805,6.029,-0.031,0.002,-0.027,100.0,120.0,100.0,13.4,1505.3,326.1,-0.7,1.8,2470.497,13.32,0.031,273.7
2020-12-23T01:13:03,42.805,6.029,-0.01,0.001,-0.009,100.0,116.0,100.0,13.3,1505.3,323.7,-0.7,1.8,2470.468,13.32,0.01,275.7
2020-12-23T01:16:03,42.805,6.029,-0.015,0.005,0.028,100.0,118.0,99.0,13.4,1505.3,324.0,-0.7,1.8,2470.441,13.32,0.015,288.4
2020-12-23T01:19:03,42.805,6.029,-0.028,0.021,0.009,101.0,117.0,99.0,13.4,1505.3,325.8,-0.7,1.8,2470.438,13.32,0.035,306.9
2020-12-23T01:22:03,42.805,6.029,0.0,0.007,0.0,100.0,118.0,100.0,13.3,1505.3,326.2,-0.7,1.8,2470.417,13.32,0.007,0.0
2020-12-23T01:25:03,42.805,6.029,0.007,0.007,0.016,101.0,121.0,99.0,13.4,1505.3,325.6,-0.7,1.8,2470.466,13.32,0.009,45.0
2020-12-23T01:28:03,42.805,6.029,-0.025,0.01,-0.001,100.0,120.0,99.0,13.3,1505.3,328.0,-0.7,1.8,2470.446,13.32,0.026,291.8
2020-12-23T01:31:03,42.805,6.029,-0.035,0.021,-0.008,101.0,122.0,99.0,13.4,1505.3,326.3,-0.7,1.8,2470.459,13.32,0.04,301.0
2020-12-23T01:34:03,42.805,6.029,-0.034,0.02,0.011,101.0,121.0,99.0,13.3,1505.3,324.5,-0.7,1.8,2470.436,13.32,0.039,300.5
2020-12-23T01:37:03,42.805,6.029,-0.015,0.019,0.017,103.0,121.0,100.0,13.4,1505.3,326.9,-0.7,1.9,2470.423,13.32,0.024,321.7
2020-12-23T01:40:03,42.805,6.029,-0.027,0.008,0.005,100.0,123.0,100.0,13.4,1505.3,323.7,-0.7,1.8,2470.454,13.32,0.028,286.5
2020-12-23T01:43:03,42.805,6.029,-0.015,0.022,-0.026,101.0,121.0,100.0,13.4,1505.3,326.3,-0.7,1.8,2470.403,13.32,0.026,325.7
2020-12-23T01:46:03,42.805,6.029,-0.007,-0.005,0.022,100.0,122.0,98.0,13.4,1505.3,326.9,-0.7,1.8,2470.414,13.32,0.008,234.5
2020-12-23T01:49:03,42.805,6.029,-0.008,-0.004,0.005,101.0,120.0,99.0,13.4,1505.3,326.3,-0.7,1.8,2470.428,13.32,0.008,243.4
2020-12-23T01:52:03,42.805,6.029,-0.011,0.021,-0.009,101.0,123.0,100.0,13.4,1505.3,324.5,-0.7,1.8,2470.461,13.32,0.023,332.4
2020-12-23T01:55:03,42.805,6.029,0.009,0.022,0.018,101.0,121.0,99.0,13.4,1505.3,323.1,-0.7,1.8,2470.449,13.32,0.023,22.2
2020-12-23T01:58:03,42.805,6.029,0.0,0.003,0.012,101.0,117.0,100.0,13.3,1505.3,326.6,-0.7,1.8,2470.41,13.32,0.003,0.0
2020-12-23T02:04:03,42.805,6.029,-0.043,0.0,-0.022,101.0,120.0,99.0,13.4,1505.2,325.6,-0.7,1.8,2470.467,13.3,0.043,270.0
2020-12-23T02:07:03,42.805,6.029,-0.007,0.016,0.002,101.0,118.0,99.0,13.4,1505.3,324.9,-0.7,1.8,2470.447,13.31,0.017,336.4
2020-12-23T02:10:03,42.805,6.029,0.009,0.02,0.022,101.0,121.0,100.0,13.3,1505.3,325.2,-0.7,1.9,2470.467,13.31,0.021,24.2
2020-12-23T02:13:03,42.805,6.029,-0.017,0.001,0.006,103.0,119.0,99.0,13.4,1505.3,325.7,-0.7,1.8,2470.479,13.32,0.017,273.4
2020-12-23T02:16:03,42.805,6.029,-0.002,0.012,0.022,101.0,119.0,98.0,13.4,1505.3,322.8,-0.7,1.9,2470.465,13.32,0.012,350.5
2020-12-23T02:19:03,42.805,6.029,-0.015,-0.002,-0.015,101.0,119.0,99.0,13.3,1505.3,327.7,-0.7,1.8,2470.443,13.32,0.015,262.4
2020-12-23T02:22:03,42.805,6.029,0.004,0.001,-0.001,101.0,116.0,101.0,13.3,1505.3,327.9,-0.7,1.8,2470.475,13.32,0.004,76.0
2020-12-23T02:25:03,42.805,6.029,-0.009,0.023,0.0,102.0,115.0,99.0,13.4,1505.3,326.5,-0.7,1.8,2470.43,13.32,0.024,338.6
2020-12-23T02:28:03,42.805,6.029,-0.033,0.027,-0.02,101.0,121.0,99.0,13.3,1505.3,324.9,-0.7,1.8,2470.426,13.32,0.042,309.3
2020-12-23T02:31:03,42.805,6.029,-0.007,-0.007,-0.014,101.0,121.0,99.0,13.4,1505.3,327.0,-0.7,1.8,2470.455,13.32,0.009,225.0
2020-12-23T02:34:03,42.805,6.029,-0.026,0.005,-0.043,101.0,121.0,99.0,13.4,1505.3,326.4,-0.7,1.8,2470.47,13.32,0.026,280.9
2020-12-23T02:37:03,42.805,6.029,0.003,0.011,0.025,100.0,119.0,101.0,13.3,1505.3,326.6,-0.7,1.8,2470.436,13.32,0.011,15.3
2020-12-23T02:40:03,42.805,6.029,0.023,0.032,0.052,102.0,118.0,99.0,13.4,1505.3,324.7,-0.7,1.8,2470.421,13.32,0.039,35.7
2020-12-23T02:43:03,42.805,6.029,-0.016,0.008,0.009,101.0,120.0,100.0,13.4,1505.3,323.8,-0.7,1.8,2470.45,13.32,0.017,296.6
2020-12-23T02:46:03,42.805,6.029,-0.003,0.004,0.034,101.0,123.0,98.0,13.4,1505.3,325.3,-0.7,1.8,2470.442,13.32,0.005,323.1
2020-12-23T02:49:03,42.805,6.029,-0.016,0.007,-0.024,101.0,120.0,100.0,13.3,1505.3,323.1,-0.7,1.8,2470.446,13.32,0.017,293.6
2020-12-23T02:52:03,42.805,6.029,-0.019,0.014,0.001,100.0,119.0,100.0,13.4,1505.3,324.1,-0.7,1.8,2470.42,13.32,0.023,306.4
2020-12-23T02:55:03,42.805,6.029,0.004,0.0,-0.032,101.0,119.0,100.0,13.4,1505.3,327.8,-0.7,1.8,2470.438,13.32,0.004,90.0
2020-12-23T02:58:03,42.805,6.029,0.032,0.0,0.009,100.0,122.0,99.0,13.3,1505.3,323.0,-0.7,1.9,2470.41,13.32,0.032,90.0
2020-12-23T03:04:03,42.805,6.029,-0.023,-0.003,-0.021,102.0,117.0,99.0,13.4,1505.2,325.2,-0.7,1.8,2470.485,13.3,0.023,262.6
2020-12-23T03:07:03,42.805,6.029,-0.024,0.015,0.007,102.0,118.0,99.0,13.4,1505.3,325.6,-0.7,1.8,2470.437,13.31,0.028,302.0
2020-12-23T03:10:03,42.805,6.029,-0.001,0.0,-0.012,101.0,117.0,101.0,13.3,1505.3,322.8,-0.7,1.8,2470.46,13.31,0.001,270.0
2020-12-23T03:13:03,42.805,6.029,0.008,0.007,-0.009,101.0,119.0,99.0,13.4,1505.3,326.4,-0.7,1.9,2470.434,13.32,0.01,48.8
2020-12-23T03:16:03,42.805,6.029,-0.019,0.003,-0.02,102.0,118.0,99.0,13.3,1505.3,324.0,-0.7,1.8,2470.472,13.32,0.019,279.0
2020-12-23T03:19:03,42.805,6.029,-0.001,0.015,0.002,102.0,119.0,99.0,13.3,1505.3,328.4,-0.7,1.8,2470.433,13.32,0.015,356.2
2020-12-23T03:22:03,42.805,6.029,0.011,0.037,0.004,100.0,122.0,99.0,13.4,1505.3,323.8,-0.7,1.8,2470.49,13.32,0.038,16.6
2020-12-23T03:25:03,42.805,6.029,0.004,0.014,0.007,102.0,119.0,99.0,13.4,1505.3,325.8,-0.7,1.8,2470.435,13.32,0.014,15.9
2020-12-23T03:28:03,42.805,6.029,0.004,-0.001,0.022,102.0,119.0,100.0,13.4,1505.3,324.2,-0.7,1.8,2470.39,13.32,0.004,104.0
2020-12-23T03:31:03,42.805,6.029,0.001,0.012,-0.005,101.0,118.0,99.0,13.4,1505.3,327.0,-0.7,1.8,2470.451,13.32,0.012,4.8
2020-12-23T03:34:03,42.805,6.029,0.013,0.0,-0.004,101.0,118.0,100.0,13.4,1505.3,323.3,-0.7,1.8,2470.422,13.32,0.013,90.0
2020-12-23T03:37:03,42.805,6.029,0.019,0.007,0.007,102.0,117.0,100.0,13.4,1505.3,326.2,-0.7,1.8,2470.41,13.32,0.02,69.8
2020-12-23T03:40:03,42.805,6.029,0.001,0.013,0.001,101.0,119.0,99.0,13.4,1505.3,324.7,-0.7,1.8,2470.44,13.32,0.013,4.4
2020-12-23T03:43:03,42.805,6.029,-0.013,0.021,0.013,101.0,119.0,99.0,13.4,1505.3,328.3,-0.7,1.8,2470.423,13.32,0.024,328.2
2020-12-23T03:46:03,42.805,6.029,-0.011,0.012,-0.006,101.0,121.0,99.0,13.4,1505.3,323.6,-0.7,1.8,2470.446,13.32,0.016,317.5
2020-12-23T03:49:03,42.805,6.029,-0.013,0.015,-0.008,101.0,119.0,100.0,13.4,1505.3,326.3,-0.7,1.8,2470.434,13.32,0.019,319.1
2020-12-23T03:52:03,42.805,6.029,0.0,-0.009,0.01,100.0,120.0,99.0,13.4,1505.3,323.1,-0.8,1.8,2470.435,13.32,0.009,180.0
2020-12-23T03:55:03,42.805,6.029,0.008,0.012,0.035,100.0,117.0,100.0,13.4,1505.3,325.6,-0.7,1.8,2470.427,13.32,0.014,33.7
2020-12-23T03:58:03,42.805,6.029,-0.018,0.009,-0.022,101.0,117.0,100.0,13.4,1505.3,328.3,-0.7,1.8,2470.43,13.32,0.02,296.6
2020-12-23T04:04:03,42.805,6.029,0.007,0.012,0.004,101.0,118.0,100.0,13.4,1505.2,323.5,-0.7,1.8,2470.472,13.3,0.013,30.3
2020-12-23T04:07:03,42.805,6.029,-0.014,0.013,-0.009,101.0,120.0,100.0,13.4,1505.3,323.6,-0.7,1.9,2470.45,13.31,0.019,312.9
2020-12-23T04:10:03,42.805,6.029,0.005,-0.008,-0.024,101.0,120.0,99.0,13.4,1505.3,325.2,-0.7,1.8,2470.444,13.31,0.009,148.0
2020-12-23T04:13:03,42.805,6.029,-0.012,0.018,-0.011,100.0,117.0,101.0,13.4,1505.3,327.0,-0.7,1.8,2470.458,13.32,0.021,326.3
2020-12-23T04:16:03,42.805,6.029,0.022,-0.007,-0.03,102.0,116.0,100.0,13.4,1505.3,322.8,-0.7,1.8,2470.425,13.32,0.023,107.6
2020-12-23T04:19:03,42.805,6.029,-0.011,0.014,0.0,100.0,118.0,100.0,13.4,1505.3,323.4,-0.7,1.8,2470.444,13.32,0.017,321.8
2020-12-23T04:22:03,42.805,6.029,-0.002,0.008,0.006,101.0,117.0,99.0,13.4,1505.3,324.3,-0.7,1.8,2470.43,13.32,0.008,346.0
2020-12-23T04:25:03,42.805,6.029,0.001,0.018,-0.002,101.0,115.0,99.0,13.4,1505.3,324.6,-0.7,1.8,2470.391,13.32,0.018,3.2
2020-12-23T04:28:03,42.805,6.029,-0.014,0.001,0.001,102.0,115.0,100.0,13.4,1505.3,325.2,-0.7,1.8,2470.414,13.32,0.014,274.1
2020-12-23T04:31:03,42.805,6.029,0.004,0.018,-0.016,103.0,117.0,102.0,13.3,1505.3,324.7,-0.7,1.8,2470.431,13.32,0.018,12.5
2020-12-23T04:34:03,42.805,6.029,0.005,0.001,0.005,101.0,116.0,101.0,13.4,1505.3,327.1,-0.7,1.8,2470.421,13.32,0.005,78.7
2020-12-23T04:37:03,42.805,6.029,-0.01,0.02,-0.008,102.0,117.0,100.0,13.4,1505.3,328.1,-0.7,1.8,2470.431,13.32,0.022,333.4
2020-12-23T04:40:03,42.805,6.029,-0.008,0.011,-0.022,102.0,114.0,100.0,13.4,1505.3,326.3,-0.7,1.8,2470.4,13.32,0.013,324.0
2020-12-23T04:43:03,42.805,6.029,-0.031,0.002,-0.02,100.0,117.0,100.0,13.4,1505.3,325.3,-0.7,1.8,2470.443,13.32,0.031,273.7
2020-12-23T04:46:03,42.805,6.029,-0.009,0.025,0.006,101.0,117.0,99.0,13.4,1505.3,322.5,-0.7,1.8,2470.45,13.32,0.026,340.2
2020-12-23T04:49:03,42.805,6.029,0.001,0.004,-0.009,100.0,117.0,100.0,13.4,1505.3,324.3,-0.7,1.8,2470.428,13.32,0.004,14.0
2020-12-23T04:52:03,42.805,6.029,0.0,0.018,0.0,101.0,116.0,100.0,13.4,1505.3,326.9,-0.7,1.8,2470.403,13.32,0.018,0.0
2020-12-23T04:55:03,42.805,6.029,0.0,0.011,-0.008,102.0,115.0,99.0,13.4,1505.3,326.0,-0.7,1.8,2470.447,13.32,0.011,0.0
2020-12-23T04:58:03,42.805,6.029,0.014,0.008,0.022,102.0,115.0,100.0,13.4,1505.3,326.1,-0.7,1.9,2470.408,13.32,0.016,60.3
2020-12-23T05:04:03,42.805,6.029,0.002,0.009,0.01,102.0,116.0,99.0,13.4,1505.2,327.9,-0.7,1.8,2470.453,13.3,0.009,12.5
2020-12-23T05:07:03,42.805,6.029,0.007,-0.007,-0.017,101.0,116.0,100.0,13.3,1505.3,325.3,-0.7,1.8,2470.414,13.31,0.009,135.0
2020-12-23T05:10:03,42.805,6.029,-0.01,0.017,0.0,99.0,116.0,100.0,13.3,1505.3,327.7,-0.7,1.8,2470.469,13.31,0.019,329.5
2020-12-23T05:13:03,42.805,6.029,0.012,0.004,-0.011,100.0,117.0,100.0,13.3,1505.3,327.7,-0.7,1.8,2470.422,13.32,0.012,71.6
2020-12-23T05:16:03,42.805,6.029,-0.001,-0.001,-0.033,101.0,116.0,100.0,13.4,1505.3,327.9,-0.7,1.8,2470.456,13.32,0.001,225.0
2020-12-23T05:19:03,42.805,6.029,-0.013,-0.007,-0.009,101.0,114.0,99.0,13.4,1505.3,324.2,-0.7,1.8,2470.447,13.32,0.014,241.7
2020-12-23T05:22:03,42.805,6.029,0.001,-0.006,0.0,101.0,111.0,100.0,13.4,1505.3,327.0,-0.7,1.8,2470.436,13.32,0.006,170.5
2020-12-23T05:25:03,42.805,6.029,0.003,0.012,-0.014,102.0,115.0,99.0,13.4,1505.3,326.9,-0.7,1.8,2470.435,13.32,0.012,14.0
2020-12-23T05:28:03,42.805,6.029,-0.008,-0.012,0.017,100.0,115.0,99.0,13.4,1505.3,323.3,-0.7,1.8,2470.445,13.32,0.014,213.7
2020-12-23T05:31:03,42.805,6.029,0.011,0.038,0.017,102.0,112.0,99.0,13.3,1505.3,326.9,-0.7,1.8,2470.435,13.32,0.039,16.1
2020-12-23T05:34:03,42.805,6.029,0.003,-0.012,-0.002,102.0,113.0,100.0,13.3,1505.3,324.2,-0.7,1.8,2470.429,13.32,0.012,166.0
2020-12-23T05:37:03,42.805,6.029,-0.025,0.022,0.022,101.0,113.0,99.0,13.4,1505.3,326.1,-0.7,1.8,2470.442,13.32,0.033,311.3
2020-12-23T05:40:03,42.805,6.029,-0.015,0.01,0.017,100.0,113.0,100.0,13.4,1505.3,327.5,-0.7,1.8,2470.45,13.32,0.018,303.7
2020-12-23T05:43:03,42.805,6.029,0.014,0.008,0.017,100.0,112.0,100.0,13.4,1505.3,324.4,-0.7,1.8,2470.434,13.32,0.016,60.3
2020-12-23T05:46:03,42.805,6.029,0.004,0.0,-0.01,102.0,112.0,99.0,13.3,1505.3,326.3,-0.7,1.8,2470.406,13.32,0.004,90.0
2020-12-23T05:49:03,42.805,6.029,-0.006,0.016,0.003,100.0,112.0,101.0,13.4,1505.3,323.1,-0.7,1.8,2470.425,13.32,0.017,339.4
2020-12-23T05:52:03,42.805,6.029,0.04,0.0,0.034,101.0,112.0,100.0,13.4,1505.3,324.5,-0.7,1.8,2470.375,13.32,0.04,90.0
2020-12-23T05:55:03,42.805,6.029,0.001,0.001,-0.003,101.0,112.0,99.0,13.4,1505.3,326.4,-0.7,1.8,2470.401,13.32,0.001,45.0
2020-12-23T05:58:03,42.805,6.029,0.01,-0.006,0.014,102.0,114.0,99.0,13.4,1505.3,324.6,-0.7,1.8,2470.409,13.33,0.011,121.0
2020-12-23T06:04:03,42.805,6.029,0.0,-0.01,-0.032,101.0,116.0,99.0,13.4,1505.2,327.5,-0.7,1.8,2470.465,13.3,0.01,180.0
2020-12-23T06:07:03,42.805,6.029,0.006,0.023,-0.037,101.0,113.0,101.0,13.3,1505.3,325.0,-0.7,1.8,2470.449,13.31,0.023,14.6
2020-12-23T06:10:03,42.805,6.029,0.013,0.003,0.006,101.0,112.0,99.0,13.4,1505.3,326.0,-0.7,1.8,2470.447,13.32,0.013,77.0
2020-12-23T06:13:03,42.805,6.029,0.062,-0.001,0.06,101.0,111.0,99.0,13.4,1505.3,327.2,-0.7,1.8,2470.419,13.32,0.062,90.9
2020-12-23T06:16:03,42.805,6.029,0.017,0.019,0.093,102.0,112.0,99.0,13.4,1505.3,328.2,-0.7,1.8,2470.452,13.32,0.025,41.8
2020-12-23T06:19:03,42.805,6.029,0.001,0.015,-0.009,102.0,114.0,100.0,13.4,1505.3,325.0,-0.7,1.8,2470.384,13.32,0.015,3.8
2020-12-23T06:22:03,42.805,6.029,-0.007,-0.001,-0.004,101.0,115.0,100.0,13.3,1505.3,326.3,-0.7,1.9,2470.419,13.32,0.007,261.9
2020-12-23T06:25:03,42.805,6.029,-0.002,0.004,0.014,101.0,113.0,100.0,13.4,1505.3,324.0,-0.7,1.8,2470.433,13.32,0.004,333.4
2020-12-23T06:28:03,42.805,6.029,-0.032,0.013,-0.019,100.0,115.0,99.0,13.4,1505.3,322.8,-0.7,1.9,2470.442,13.32,0.034,292.1
2020-12-23T06:31:03,42.805,6.029,-0.017,0.007,-0.023,101.0,113.0,100.0,13.3,1505.3,326.2,-0.7,1.8,2470.407,13.32,0.018,292.4
2020-12-23T06:34:03,42.805,6.029,-0.007,0.003,-0.003,101.0,113.0,100.0,13.4,1505.3,323.6,-0.7,1.8,2470.389,13.32,0.007,293.2
2020-12-23T06:37:03,42.805,6.029,0.028,0.044,0.041,100.0,113.0,100.0,13.3,1505.3,328.2,-0.7,1.8,2470.398,13.32,0.052,32.5
2020-12-23T06:40:03,42.805,6.029,-0.013,0.022,-0.012,101.0,116.0,100.0,13.3,1505.3,325.0,-0.7,1.8,2470.439,13.32,0.025,329.4
2020-12-23T06:43:03,42.805,6.029,-0.016,-0.008,-0.027,101.0,116.0,99.0,13.4,1505.3,323.1,-0.7,1.8,2470.392,13.32,0.017,243.4
2020-12-23T06:46:03,42.805,6.029,-0.015,-0.005,-0.026,101.0,112.0,99.0,13.3,1505.3,326.7,-0.7,1.8,2470.443,13.32,0.015,251.6
2020-12-23T06:49:03,42.805,6.029,0.0,0.018,-0.009,101.0,121.0,100.0,13.3,1505.3,322.8,-0.7,1.8,2470.422,13.32,0.018,0.0
2020-12-23T06:52:03,42.805,6.029,0.006,0.002,0.02,101.0,117.0,99.0,13.4,1505.3,326.1,-0.7,1.8,2470.444,13.32,0.006,71.6
2020-12-23T06:55:03,42.805,6.029,-0.005,0.034,0.01,101.0,119.0,99.0,13.4,1505.3,326.3,-0.7,1.8,2470.436,13.32,0.034,351.6
2020-12-23T06:58:03,42.805,6.029,-0.023,0.031,0.004,101.0,117.0,100.0,13.4,1505.3,325.6,-0.7,1.8,2470.404,13.32,0.038,323.4
2020-12-23T07:04:03,42.805,6.029,-0.011,-0.001,-0.017,101.0,122.0,99.0,13.4,1505.2,327.1,-0.8,1.8,2470.455,13.3,0.011,264.8
2020-12-23T07:07:03,42.805,6.029,0.002,0.015,0.024,101.0,118.0,99.0,13.3,1505.3,324.7,-0.7,1.8,2470.424,13.31,0.015,7.6
2020-12-23T07:10:03,42.805,6.029,-0.018,0.022,-0.003,101.0,121.0,100.0,13.4,1505.3,324.3,-0.7,1.8,2470.434,13.31,0.028,320.7
2020-12-23T07:13:03,42.805,6.029,0.0,0.025,-0.014,102.0,120.0,100.0,13.4,1505.3,327.0,-0.7,1.8,2470.426,13.32,0.025,0.0
2020-12-23T07:16:03,42.805,6.029,-0.002,0.013,-0.012,100.0,119.0,101.0,13.4,1505.3,328.0,-0.7,1.8,2470.426,13.32,0.013,351.3
2020-12-23T07:19:03,42.805,6.029,0.008,0.0,-0.003,102.0,120.0,99.0,13.4,1505.3,327.1,-0.7,1.8,2470.395,13.32,0.008,90.0
2020-12-23T07:22:03,42.805,6.029,0.012,0.008,0.014,101.0,117.0,100.0,13.4,1505.3,324.6,-0.7,1.8,2470.446,13.32,0.014,56.3
2020-12-23T07:25:03,42.805,6.029,0.014,0.016,-0.005,101.0,119.0,99.0,13.3,1505.3,326.6,-0.7,1.8,2470.397,13.32,0.021,41.2
2020-12-23T07:28:03,42.805,6.029,0.012,-0.007,-0.003,101.0,122.0,99.0,13.3,1505.3,324.0,-0.7,1.8,2470.388,13.32,0.013,120.3
2020-12-23T07:31:03,42.805,6.029,-0.003,0.012,-0.038,100.0,121.0,99.0,13.3,1505.3,323.4,-0.7,1.8,2470.433,13.32,0.012,346.0
2020-12-23T07:34:03,42.805,6.029,0.036,0.011,0.016,101.0,117.0,100.0,13.4,1505.3,324.7,-0.7,1.9,2470.411,13.32,0.037,73.0
2020-12-23T07:37:03,42.805,6.029,0.023,0.0,0.0,102.0,113.0,99.0,13.4,1505.3,325.7,-0.7,1.8,2470.42,13.32,0.023,90.0
2020-12-23T07:40:03,42.805,6.029,0.006,0.009,-0.016,99.0,116.0,101.0,13.4,1505.3,324.0,-0.7,1.9,2470.387,13.32,0.01,33.7
2020-12-23T07:43:03,42.805,6.029,0.003,0.022,0.005,101.0,118.0,99.0,13.4,1505.3,328.1,-0.7,1.8,2470.394,13.32,0.022,7.8
2020-12-23T07:46:03,42.805,6.029,0.001,-0.007,-0.013,102.0,117.0,100.0,13.3,1505.3,325.7,-0.7,1.8,2470.428,13.32,0.007,171.9
2020-12-23T07:49:03,42.805,6.029,0.05,0.006,0.019,102.0,115.0,100.0,13.4,1505.3,326.9,-0.7,1.8,2470.409,13.32,0.05,83.2
2020-12-23T07:52:03,42.805,6.029,0.018,0.007,0.007,102.0,116.0,99.0,13.4,1505.3,325.4,-0.7,1.8,2470.466,13.32,0.019,68.8
2020-12-23T07:55:03,42.805,6.029,0.018,0.006,0.006,102.0,116.0,99.0,13.4,1505.3,325.4,-0.7,1.8,2470.392,13.32,0.018,71.6
2020-12-23T07:58:03,42.805,6.029,0.029,0.003,0.035,102.0,112.0,100.0,13.3,1505.3,325.4,-0.7,1.8,2470.381,13.32,0.029,84.1
2020-12-23T08:04:03,42.805,6.029,0.014,0.001,0.004,102.0,113.0,99.0,13.3,1505.2,322.8,-0.7,1.8,2470.412,13.3,0.014,85.9
2020-12-23T08:07:03,42.805,6.029,0.024,-0.009,-0.014,101.0,114.0,100.0,13.4,1505.3,327.2,-0.7,1.8,2470.443,13.31,0.025,110.6
2020-12-23T08:10:03,42.805,6.029,0.022,0.004,0.003,99.0,114.0,101.0,13.3,1505.3,323.7,-0.7,1.8,2470.414,13.31,0.022,79.7
2020-12-23T08:13:03,42.805,6.029,0.001,-0.012,0.001,101.0,112.0,101.0,13.4,1505.3,326.0,-0.7,1.9,2470.397,13.31,0.012,175.2
2020-12-23T08:16:03,42.805,6.029,0.004,0.004,-0.01,99.0,115.0,100.0,13.4,1505.3,324.7,-0.7,1.8,2470.486,13.32,0.005,45.0
2020-12-23T08:19:03,42.805,6.029,-0.003,0.013,-0.01,102.0,117.0,99.0,13.4,1505.3,328.0,-0.7,1.8,2470.442,13.32,0.013,347.0
2020-12-23T08:22:03,42.805,6.029,0.003,0.021,-0.02,100.0,119.0,100.0,13.4,1505.3,325.1,-0.7,1.8,2470.414,13.32,0.021,8.1
2020-12-23T08:25:03,42.805,6.029,0.009,0.02,0.034,101.0,117.0,99.0,13.4,1505.3,324.7,-0.7,1.8,2470.4,13.32,0.021,24.2
2020-12-23T08:28:03,42.805,6.029,0.008,-0.014,-0.006,101.0,116.0,100.0,13.3,1505.3,323.6,-0.7,1.8,2470.401,13.32,0.016,150.3
2020-12-23T08:31:03,42.805,6.029,0.015,-0.015,-0.028,101.0,114.0,100.0,13.4,1505.3,326.3,-0.7,1.8,2470.379,13.32,0.021,135.0
2020-12-23T08:34:03,42.805,6.029,0.01,-0.011,-0.016,101.0,110.0,100.0,13.4,1505.3,327.2,-0.7,1.8,2470.405,13.32,0.014,137.7
2020-12-23T08:37:03,42.805,6.029,0.008,-0.008,-0.027,103.0,112.0,99.0,13.4,1505.3,325.5,-0.7,1.8,2470.39,13.32,0.011,135.0
2020-12-23T08:40:03,42.805,6.029,0.008,-0.008,-0.013,101.0,110.0,100.0,13.3,1505.3,328.0,-0.7,1.8,2470.384,13.32,0.011,135.0
2020-12-23T08:43:03,42.805,6.029,0.016,-0.018,-0.005,101.0,111.0,101.0,13.4,1505.3,326.8,-0.7,1.8,2470.39,13.32,0.024,138.4
2020-12-23T08:46:03,42.805,6.029,0.004,-0.013,-0.028,102.0,113.0,100.0,13.4,1505.3,326.9,-0.7,1.9,2470.399,13.32,0.013,162.9
2020-12-23T08:49:03,42.805,6.029,0.013,-0.021,-0.009,101.0,112.0,100.0,13.4,1505.3,327.5,-0.7,1.8,2470.382,13.32,0.024,148.2
2020-12-23T08:52:03,42.805,6.029,0.007,0.0,0.002,102.0,110.0,100.0,13.4,1505.3,327.2,-0.7,1.8,2470.386,13.32,0.007,90.0
2020-12-23T08:55:03,42.805,6.029,0.01,-0.005,-0.014,102.0,112.0,101.0,13.4,1505.3,324.0,-0.7,1.8,2470.402,13.32,0.011,116.6
2020-12-23T08:58:03,42.805,6.029,0.026,-0.017,-0.014,102.0,115.0,99.0,13.4,1505.3,323.2,-0.7,1.8,2470.384,13.32,0.031,123.2
2020-12-23T09:04:03,42.805,6.029,0.032,-0.003,0.027,102.0,118.0,100.0,13.4,1505.2,324.4,-0.7,1.8,2470.465,13.3,0.032,95.4
2020-12-23T09:07:03,42.805,6.029,0.017,-0.011,0.005,102.0,114.0,99.0,13.3,1505.3,325.9,-0.7,1.8,2470.454,13.31,0.02,122.9
2020-12-23T09:10:03,42.805,6.029,0.006,-0.004,0.011,103.0,108.0,100.0,13.3,1505.3,325.0,-0.7,1.9,2470.415,13.31,0.007,123.7
2020-12-23T09:13:03,42.805,6.029,0.014,-0.006,0.006,101.0,113.0,99.0,13.4,1505.3,325.1,-0.7,1.8,2470.466,13.32,0.015,113.2
2020-12-23T09:16:03,42.805,6.029,0.042,-0.037,0.008,102.0,112.0,99.0,13.4,1505.3,324.0,-0.7,1.8,2470.414,13.32,0.055,131.4
2020-12-23T09:19:03,42.805,6.029,0.018,-0.028,-0.015,103.0,108.0,98.0,13.4,1505.3,324.5,-0.7,1.8,2470.41,13.32,0.033,147.3
2020-12-23T09:22:03,42.805,6.029,0.017,-0.014,-0.003,99.0,105.0,101.0,13.4,1505.3,326.8,-0.7,1.9,2470.418,13.32,0.022,129.5
2020-12-23T09:25:03,42.805,6.029,0.0,-0.03,-0.015,101.0,106.0,100.0,13.4,1505.3,324.2,-0.7,1.9,2470.447,13.32,0.03,180.0
2020-12-23T09:28:03,42.805,6.029,0.017,-0.016,-0.021,101.0,106.0,100.0,13.4,1505.3,326.9,-0.7,1.8,2470.407,13.32,0.023,133.3
2020-12-23T09:31:03,42.805,6.029,-0.038,0.004,0.049,101.0,108.0,100.0,13.4,1505.3,326.3,-0.7,1.8,2470.433,13.32,0.038,276.0
2020-12-23T09:34:03,42.805,6.029,0.017,-0.019,0.016,102.0,108.0,99.0,13.4,1505.3,323.3,-0.7,1.9,2470.443,13.32,0.025,138.2
2020-12-23T09:37:03,42.805,6.029,0.04,-0.01,0.019,101.0,108.0,99.0,13.4,1505.3,328.5,-0.7,1.8,2470.42,13.32,0.041,104.0
2020-12-23T09:40:03,42.805,6.029,-0.002,0.001,-0.019,101.0,107.0,98.0,13.4,1505.3,325.7,-0.7,1.8,2470.447,13.32,0.002,296.6
2020-12-23T09:43:03,42.805,6.029,0.008,-0.009,0.018,102.0,108.0,99.0,13.4,1505.3,326.9,-0.7,1.8,2470.436,13.32,0.012,138.4
2020-12-23T09:46:03,42.805,6.029,-0.006,-0.008,-0.039,100.0,107.0,99.0,13.4,1505.3,326.0,-0.7,1.8,2470.427,13.32,0.01,216.9
2020-12-23T09:49:03,42.805,6.029,0.009,-0.016,0.003,101.0,108.0,100.0,13.3,1505.3,324.5,-0.7,1.8,2470.44,13.32,0.018,150.6
2020-12-23T09:52:03,42.805,6.029,-0.002,-0.032,0.021,100.0,107.0,106.0,13.4,1505.3,326.5,-0.7,1.8,2470.41,13.32,0.032,183.6
2020-12-23T09:55:03,42.805,6.029,-0.005,-0.02,0.01,101.0,108.0,99.0,13.4,1505.3,323.1,-0.7,1.8,2470.407,13.32,0.02,194.0
2020-12-23T09:58:03,42.805,6.029,0.047,-0.008,0.035,101.0,105.0,99.0,13.4,1505.3,322.9,-0.7,1.8,2470.436,13.32,0.047,99.7
2020-12-23T10:04:03,42.805,6.029,0.004,-0.014,0.015,101.0,107.0,99.0,13.4,1505.2,328.2,-0.8,1.8,2470.463,13.3,0.014,164.1